Powrót do katalogu

STARLINK-34341

AktywnyŁącznośćSSO
NORAD 64161·PAYLOAD·🇺🇸 United States

Wystrzelony May 27, 2025 z Vandenberg Space Force Base

Loading…

Następne Przeloty (najbliższe 24 godziny)

TLE

ŚwieżeSource: CelesTrak SupGP

Epoka: Sep 14, 2026, 22:37 UTC

1 64161C 25112R   26257.94284722  .00010984  00000+0  34099-3 0  2575
2 64161  97.2835 305.0497 0000990  98.3321 248.9464 15.33432798    19

Śledź STARLINK-34341 w czasie rzeczywistym z AllMySat

Download on the App Store